Nantucket, MA

1:23 AM EST on February 07, 2016 (GMT -0500)
Nantucket Memorial

Weather History for KACK - March, 2013

Change the Weather History Date:

Monday, March 18, 2013

  Actual Average Record
Temperature  
Mean Temperature 32 °F -  
Max Temperature 37 °F 40 °F 55 °F (2011)
Min Temperature 27 °F 27 °F 10 °F (1967)
Degree Days  
Heating Degree Days 34    
Moisture  
Dew Point 17 °F    
Average Humidity 53    
Maximum Humidity 64    
Minimum Humidity 45    
Precipitation  
Precipitation 0.00 in - - ()
Sea Level Pressure  
Sea Level Pressure 30.35 in    
Wind  
Wind Speed 13 mph (ENE)    
Max Wind Speed 18 mph    
Max Gust Speed 23 mph    
Visibility 10 miles    
Events      
Averages and records for this station are not official NWS values.
T = Trace of Precipitation, MM = Missing Value Source: NWS Daily Summary

Daily Weather History Graph

Daily Weather History Graph

Search for Another Location

Airport or City:

Trip Planner

Search our weather history database for the weather conditions in past years. The results will help you decide how hot, cold, wet, or windy it might be!

Date:

Astronomy

Mar. 18, 2013 Rise Set
Actual Time 6:46 AM EDT 6:50 PM EDT
Civil Twilight 6:19 AM EDT 7:17 PM EDT
Nautical Twilight 5:46 AM EDT 7:50 PM EDT
Astronomical Twilight 5:14 AM EDT 8:22 PM EDT
Moon 10:40 AM EDT (3/18) 12:50 AM EDT (3/18)
Length of Visible Light 12h 58m
Length of Day
12h 03m
Waxing Crescent, 40% of the Moon is Illuminated
Mar 18
Waxing Crescent
Mar 19
First Quarter
Mar 27
Full
Apr 3
Last Quarter
Apr 10
New

Hourly Weather History & Observations

Time (EDT) Temp. Windchill Dew Point Humidity Pressure Visibility Wind Dir Wind Speed Gust Speed Precip Events Conditions
12:53 AM 32.0 °F 20.5 °F 12.9 °F 45% 30.28 in 10.0 mi North 18.4 mph - N/A   Clear
1:53 AM 30.0 °F 19.1 °F 14.0 °F 51% 30.32 in 10.0 mi NNE 15.0 mph - N/A   Clear
2:53 AM 30.0 °F 18.3 °F 10.9 °F 45% 30.32 in 10.0 mi North 17.3 mph 20.7 mph N/A   Clear
3:53 AM 28.9 °F 17.7 °F 10.0 °F 45% 30.34 in 10.0 mi North 15.0 mph 23.0 mph N/A   Clear
4:53 AM 28.0 °F 15.7 °F 10.0 °F 47% 30.35 in 10.0 mi North 17.3 mph - N/A   Clear
5:53 AM 27.0 °F 18.7 °F 12.9 °F 56% 30.38 in 10.0 mi North 8.1 mph - N/A   Clear
6:53 AM 27.0 °F 20.5 °F 15.1 °F 61% 30.41 in 10.0 mi North 5.8 mph - N/A   Clear
7:53 AM 30.0 °F 23.2 °F 16.0 °F 56% 30.43 in 10.0 mi NNE 6.9 mph - N/A   Clear
8:53 AM 33.1 °F 24.9 °F 15.1 °F 48% 30.43 in 10.0 mi NE 10.4 mph - N/A   Clear
9:53 AM 34.0 °F 28.0 °F 15.1 °F 46% 30.43 in 10.0 mi NE 6.9 mph - N/A   Clear
10:53 AM 34.0 °F 28.0 °F 16.0 °F 48% 30.43 in 10.0 mi ESE 6.9 mph - N/A   Clear
11:53 AM 36.0 °F 27.5 °F 17.1 °F 46% 30.41 in 10.0 mi NE 12.7 mph - N/A   Clear
12:53 PM 36.0 °F 28.5 °F 17.1 °F 46% 30.40 in 10.0 mi ESE 10.4 mph 19.6 mph N/A   Clear
1:53 PM 35.1 °F 27.4 °F 17.1 °F 48% 30.40 in 10.0 mi SE 10.4 mph - N/A   Clear
2:53 PM 34.0 °F 26.6 °F 17.1 °F 50% 30.38 in 10.0 mi ESE 9.2 mph - N/A   Clear
3:53 PM 35.1 °F 27.9 °F 18.0 °F 50% 30.36 in 10.0 mi ESE 9.2 mph - N/A   Clear
4:53 PM 33.1 °F 25.5 °F 19.9 °F 59% 30.35 in 10.0 mi SE 9.2 mph - N/A   Clear
5:53 PM 33.1 °F 24.4 °F 19.9 °F 59% 30.32 in 10.0 mi SE 11.5 mph - N/A   Clear
6:53 PM 33.1 °F 24.4 °F 19.9 °F 59% 30.31 in 10.0 mi ESE 11.5 mph - N/A   Mostly Cloudy
7:53 PM 33.1 °F 25.5 °F 21.0 °F 61% 30.32 in 10.0 mi ESE 9.2 mph - N/A   Overcast
8:53 PM 34.0 °F 25.0 °F 21.9 °F 61% 30.30 in 10.0 mi ESE 12.7 mph - N/A   Overcast
9:53 PM 34.0 °F 23.8 °F 23.0 °F 64% 30.28 in 10.0 mi ESE 16.1 mph - N/A   Overcast
10:53 PM 35.1 °F 26.4 °F 24.1 °F 64% 30.25 in 10.0 mi ESE 12.7 mph - N/A   Overcast
11:53 PM 36.0 °F 26.7 °F 24.1 °F 62% 30.22 in 10.0 mi East 15.0 mph 23.0 mph N/A   Overcast